Time,TemperatureF,DewpointF,PressureIn,WindDirection,WindDirectionDegrees,WindSpeedMPH,WindSpeedGustMPH,Humidity,HourlyPrecipIn,Conditions,Clouds,dailyrainin,SoftwareType,DateUTC
2013-09-24 00:01:00,49.3,42.0,30.10,NW,310,5.8,5.8,76,0.00,FEW,,0.00,WeatherDisplay:10.37,2013-09-24 04:01:00,
2013-09-24 00:02:00,49.1,41.9,30.10,NW,310,5.8,5.8,76,0.00,FEW,,0.00,WeatherDisplay:10.37,2013-09-24 04:02:00,
2013-09-24 00:03:00,49.1,41.9,30.10,NW,310,5.8,5.8,76,0.00,FEW,,0.00,WeatherDisplay:10.37,2013-09-24 04:03:00,
2013-09-24 00:08:00,49.1,41.9,30.10,NW,310,5.8,5.8,76,0.00,FEW,,0.00,WeatherDisplay:10.37,2013-09-24 04:08:00,
2013-09-24 00:13:00,48.9,41.7,30.10,NW,310,5.8,5.8,76,0.00,FEW,,0.00,WeatherDisplay:10.37,2013-09-24 04:13:00,
2013-09-24 00:18:00,48.9,41.7,30.10,NW,310,5.8,5.8,76,0.00,FEW,,0.00,WeatherDisplay:10.37,2013-09-24 04:18:00,
2013-09-24 00:23:00,48.7,41.5,30.10,NW,310,5.8,5.8,76,0.00,FEW,,0.00,WeatherDisplay:10.37,2013-09-24 04:23:00,
2013-09-24 00:28:00,48.7,41.5,30.10,NW,310,5.8,5.8,76,0.00,FEW,,0.00,WeatherDisplay:10.37,2013-09-24 04:28:00,
2013-09-24 00:33:00,48.7,41.5,30.10,NW,310,5.8,5.8,76,0.00,FEW,,0.00,WeatherDisplay:10.37,2013-09-24 04:33:00,
2013-09-24 00:38:00,48.6,41.3,30.10,NW,310,5.8,5.8,76,0.00,FEW,,0.00,WeatherDisplay:10.37,2013-09-24 04:38:00,
2013-09-24 00:43:00,48.4,41.2,30.10,NW,310,5.8,5.8,76,0.00,FEW,,0.00,WeatherDisplay:10.37,2013-09-24 04:43:00,
2013-09-24 00:48:00,48.4,41.2,30.10,NW,310,5.8,5.8,76,0.00,FEW,,0.00,WeatherDisplay:10.37,2013-09-24 04:48:00,
2013-09-24 00:53:00,48.2,41.0,30.10,NW,310,5.8,5.8,76,0.00,FEW,,0.00,WeatherDisplay:10.37,2013-09-24 04:53:00,
2013-09-24 00:58:00,48.2,41.0,30.10,NW,310,5.8,5.8,76,0.00,FEW,,0.00,WeatherDisplay:10.37,2013-09-24 04:58:00,
2013-09-24 01:03:00,48.0,42.8,30.10,NW,320,4.6,4.6,82,0.00,FEW,,0.00,WeatherDisplay:10.37,2013-09-24 05:03:00,
2013-09-24 01:08:00,48.0,42.8,30.10,NW,320,4.6,4.6,82,0.00,FEW,,0.00,WeatherDisplay:10.37,2013-09-24 05:08:00,
2013-09-24 01:13:00,47.8,42.6,30.10,NW,320,4.6,4.6,82,0.00,FEW,,0.00,WeatherDisplay:10.37,2013-09-24 05:13:00,
2013-09-24 01:18:00,47.8,42.6,30.10,NW,320,4.6,4.6,82,0.00,FEW,,0.00,WeatherDisplay:10.37,2013-09-24 05:18:00,
2013-09-24 01:23:00,47.8,42.6,30.10,NW,320,4.6,4.6,82,0.00,FEW,,0.00,WeatherDisplay:10.37,2013-09-24 05:23:00,
2013-09-24 01:28:00,47.8,42.6,30.10,NW,320,4.6,4.6,82,0.00,FEW,,0.00,WeatherDisplay:10.37,2013-09-24 05:28:00,
2013-09-24 01:33:00,47.7,42.4,30.10,NW,320,4.6,4.6,82,0.00,FEW,,0.00,WeatherDisplay:10.37,2013-09-24 05:33:00,
2013-09-24 01:38:00,47.7,42.4,30.10,NW,320,4.6,4.6,82,0.00,FEW,,0.00,WeatherDisplay:10.37,2013-09-24 05:38:00,
2013-09-24 01:43:00,47.7,42.4,30.10,NW,320,4.6,4.6,82,0.00,FEW,,0.00,WeatherDisplay:10.37,2013-09-24 05:43:00,
2013-09-24 01:48:00,47.5,42.3,30.10,NW,320,4.6,4.6,82,0.00,FEW,,0.00,WeatherDisplay:10.37,2013-09-24 05:48:00,
2013-09-24 01:53:00,47.7,42.4,30.10,NW,320,4.6,4.6,82,0.00,FEW,,0.00,WeatherDisplay:10.37,2013-09-24 05:53:00,
2013-09-24 01:58:00,47.5,42.3,30.10,NW,320,4.6,4.6,82,0.00,FEW,,0.00,WeatherDisplay:10.37,2013-09-24 05:58:00,
2013-09-24 02:03:00,47.3,43.0,30.07,NW,320,0.0,0.0,85,0.00,FEW,,0.00,WeatherDisplay:10.37,2013-09-24 06:03:00,
2013-09-24 02:08:00,47.3,43.0,30.07,NW,320,0.0,0.0,85,0.00,FEW,,0.00,WeatherDisplay:10.37,2013-09-24 06:08:00,
2013-09-24 02:13:00,47.3,43.0,30.07,NW,320,0.0,0.0,85,0.00,FEW,,0.00,WeatherDisplay:10.37,2013-09-24 06:13:00,
2013-09-24 02:18:00,47.1,42.8,30.07,NW,320,0.0,0.0,85,0.00,FEW,,0.00,WeatherDisplay:10.37,2013-09-24 06:18:00,
2013-09-24 02:23:00,47.1,42.8,30.07,NW,320,0.0,0.0,85,0.00,FEW,,0.00,WeatherDisplay:10.37,2013-09-24 06:23:00,
2013-09-24 02:28:00,46.9,42.7,30.07,NW,320,0.0,0.0,85,0.00,FEW,,0.00,WeatherDisplay:10.37,2013-09-24 06:28:00,
2013-09-24 02:33:00,46.8,42.5,30.07,NW,320,0.0,0.0,85,0.00,FEW,,0.00,WeatherDisplay:10.37,2013-09-24 06:33:00,
2013-09-24 02:38:00,46.8,42.5,30.07,NW,320,0.0,0.0,85,0.00,FEW,,0.00,WeatherDisplay:10.37,2013-09-24 06:38:00,
2013-09-24 02:43:00,46.6,42.3,30.07,NW,320,0.0,0.0,85,0.00,FEW,,0.00,WeatherDisplay:10.37,2013-09-24 06:43:00,
2013-09-24 02:48:00,46.2,42.0,30.07,NW,320,0.0,0.0,85,0.00,FEW,,0.00,WeatherDisplay:10.37,2013-09-24 06:48:00,
2013-09-24 02:53:00,46.0,41.8,30.07,NW,320,0.0,0.0,85,0.00,FEW,,0.00,WeatherDisplay:10.37,2013-09-24 06:53:00,
2013-09-24 02:58:00,46.0,41.8,30.07,NW,320,0.0,0.0,85,0.00,FEW,,0.00,WeatherDisplay:10.37,2013-09-24 06:58:00,
2013-09-24 03:03:00,46.0,40.9,30.07,West,280,3.5,3.5,82,0.00,CLR,,0.00,WeatherDisplay:10.37,2013-09-24 07:03:00,
2013-09-24 03:08:00,45.9,40.7,30.07,West,280,3.5,3.5,82,0.00,CLR,,0.00,WeatherDisplay:10.37,2013-09-24 07:08:00,
2013-09-24 03:13:00,45.7,40.5,30.07,West,280,3.5,3.5,82,0.00,CLR,,0.00,WeatherDisplay:10.37,2013-09-24 07:13:00,
2013-09-24 03:18:00,45.5,40.3,30.07,West,280,3.5,3.5,82,0.00,CLR,,0.00,WeatherDisplay:10.37,2013-09-24 07:18:00,
2013-09-24 03:23:00,45.5,40.3,30.07,West,280,3.5,3.5,82,0.00,CLR,,0.00,WeatherDisplay:10.37,2013-09-24 07:23:00,
2013-09-24 03:28:00,45.3,40.1,30.07,West,280,3.5,3.5,82,0.00,CLR,,0.00,WeatherDisplay:10.37,2013-09-24 07:28:00,
2013-09-24 03:33:00,45.3,40.1,30.07,West,280,3.5,3.5,82,0.00,CLR,,0.00,WeatherDisplay:10.37,2013-09-24 07:33:00,
2013-09-24 03:38:00,45.3,40.1,30.07,West,280,3.5,3.5,82,0.00,CLR,,0.00,WeatherDisplay:10.37,2013-09-24 07:38:00,
2013-09-24 03:43:00,45.3,40.1,30.07,West,280,3.5,3.5,82,0.00,CLR,,0.00,WeatherDisplay:10.37,2013-09-24 07:43:00,
2013-09-24 03:48:00,45.3,40.1,30.07,West,280,3.5,3.5,82,0.00,CLR,,0.00,WeatherDisplay:10.37,2013-09-24 07:48:00,
2013-09-24 03:53:00,45.3,40.1,30.07,West,280,3.5,3.5,82,0.00,CLR,,0.00,WeatherDisplay:10.37,2013-09-24 07:53:00,
2013-09-24 03:58:00,45.3,40.1,30.07,West,280,3.5,3.5,82,0.00,CLR,,0.00,WeatherDisplay:10.37,2013-09-24 07:58:00,
2013-09-24 04:03:00,45.3,41.1,30.07,West,280,0.0,0.0,85,0.00,CLR,,0.00,WeatherDisplay:10.37,2013-09-24 08:03:00,
2013-09-24 04:08:00,45.1,40.9,30.07,West,280,0.0,0.0,85,0.00,CLR,,0.00,WeatherDisplay:10.37,2013-09-24 08:08:00,
2013-09-24 04:13:00,45.1,40.9,30.07,West,280,0.0,0.0,85,0.00,CLR,,0.00,WeatherDisplay:10.37,2013-09-24 08:13:00,
2013-09-24 04:18:00,45.0,40.7,30.07,West,280,0.0,0.0,85,0.00,CLR,,0.00,WeatherDisplay:10.37,2013-09-24 08:18:00,
2013-09-24 04:23:00,45.0,40.7,30.07,West,280,0.0,0.0,85,0.00,CLR,,0.00,WeatherDisplay:10.37,2013-09-24 08:23:00,
2013-09-24 04:28:00,44.8,40.5,30.07,West,280,0.0,0.0,85,0.00,CLR,,0.00,WeatherDisplay:10.37,2013-09-24 08:28:00,
2013-09-24 04:33:00,44.8,40.5,30.07,West,280,0.0,0.0,85,0.00,CLR,,0.00,WeatherDisplay:10.37,2013-09-24 08:33:00,
2013-09-24 04:38:00,44.6,40.4,30.07,West,280,0.0,0.0,85,0.00,CLR,,0.00,WeatherDisplay:10.37,2013-09-24 08:38:00,
2013-09-24 04:43:00,44.8,40.5,30.07,West,280,0.0,0.0,85,0.00,CLR,,0.00,WeatherDisplay:10.37,2013-09-24 08:43:00,
2013-09-24 04:48:00,44.6,40.4,30.07,West,280,0.0,0.0,85,0.00,CLR,,0.00,WeatherDisplay:10.37,2013-09-24 08:48:00,
2013-09-24 04:53:00,44.6,40.4,30.07,West,280,0.0,0.0,85,0.00,CLR,,0.00,WeatherDisplay:10.37,2013-09-24 08:53:00,
2013-09-24 04:58:00,44.6,40.4,30.07,West,280,0.0,0.0,85,0.00,CLR,,0.00,WeatherDisplay:10.37,2013-09-24 08:58:00,
2013-09-24 05:03:00,44.6,40.4,30.07,West,280,0.0,0.0,85,0.00,CLR,,0.00,WeatherDisplay:10.37,2013-09-24 09:03:00,
2013-09-24 05:08:00,44.6,40.4,30.07,West,280,0.0,0.0,85,0.00,CLR,,0.00,WeatherDisplay:10.37,2013-09-24 09:08:00,
2013-09-24 05:13:00,44.6,40.4,30.07,West,280,0.0,0.0,85,0.00,CLR,,0.00,WeatherDisplay:10.37,2013-09-24 09:13:00,
2013-09-24 05:18:00,44.6,40.4,30.07,West,280,0.0,0.0,85,0.00,CLR,,0.00,WeatherDisplay:10.37,2013-09-24 09:18:00,
2013-09-24 05:23:00,44.6,40.4,30.07,West,280,0.0,0.0,85,0.00,CLR,,0.00,WeatherDisplay:10.37,2013-09-24 09:23:00,
2013-09-24 05:28:00,44.8,40.5,30.07,West,280,0.0,0.0,85,0.00,CLR,,0.00,WeatherDisplay:10.37,2013-09-24 09:28:00,
2013-09-24 05:33:00,44.8,40.5,30.07,West,280,0.0,0.0,85,0.00,CLR,,0.00,WeatherDisplay:10.37,2013-09-24 09:33:00,
2013-09-24 05:38:00,45.0,40.7,30.07,West,280,0.0,0.0,85,0.00,CLR,,0.00,WeatherDisplay:10.37,2013-09-24 09:38:00,
2013-09-24 05:43:00,45.1,40.9,30.07,West,280,0.0,0.0,85,0.00,CLR,,0.00,WeatherDisplay:10.37,2013-09-24 09:43:00,
2013-09-24 05:48:00,45.1,40.9,30.07,West,280,0.0,0.0,85,0.00,CLR,,0.00,WeatherDisplay:10.37,2013-09-24 09:48:00,
2013-09-24 05:53:00,45.3,41.1,30.07,West,280,0.0,0.0,85,0.00,CLR,,0.00,WeatherDisplay:10.37,2013-09-24 09:53:00,
2013-09-24 05:58:00,45.3,41.1,30.07,West,280,0.0,0.0,85,0.00,CLR,,0.00,WeatherDisplay:10.37,2013-09-24 09:58:00,
2013-09-24 06:03:00,45.5,41.3,30.07,West,280,0.0,0.0,85,0.00,FEW,,0.00,WeatherDisplay:10.37,2013-09-24 10:03:00,
2013-09-24 06:08:00,45.5,41.3,30.07,West,280,0.0,0.0,85,0.00,FEW,,0.00,WeatherDisplay:10.37,2013-09-24 10:08:00,
2013-09-24 06:13:00,45.7,41.4,30.07,West,280,0.0,0.0,85,0.00,FEW,,0.00,WeatherDisplay:10.37,2013-09-24 10:13:00,
2013-09-24 06:18:00,45.7,41.4,30.07,West,280,0.0,0.0,85,0.00,FEW,,0.00,WeatherDisplay:10.37,2013-09-24 10:18:00,
2013-09-24 06:23:00,45.7,41.4,30.07,West,280,0.0,0.0,85,0.00,FEW,,0.00,WeatherDisplay:10.37,2013-09-24 10:23:00,
2013-09-24 06:28:00,45.9,41.6,30.07,West,280,0.0,0.0,85,0.00,FEW,,0.00,WeatherDisplay:10.37,2013-09-24 10:28:00,
2013-09-24 06:33:00,45.9,41.6,30.07,West,280,0.0,0.0,85,0.00,FEW,,0.00,WeatherDisplay:10.37,2013-09-24 10:33:00,
2013-09-24 06:38:00,45.9,41.6,30.07,West,280,0.0,0.0,85,0.00,FEW,,0.00,WeatherDisplay:10.37,2013-09-24 10:38:00,
2013-09-24 06:43:00,45.7,41.4,30.07,West,280,0.0,0.0,85,0.00,FEW,,0.00,WeatherDisplay:10.37,2013-09-24 10:43:00,
2013-09-24 06:48:00,45.7,41.4,30.07,West,280,0.0,0.0,85,0.00,FEW,,0.00,WeatherDisplay:10.37,2013-09-24 10:48:00,
2013-09-24 06:53:00,45.9,41.6,30.07,West,280,0.0,0.0,85,0.00,FEW,,0.00,WeatherDisplay:10.37,2013-09-24 10:53:00,
2013-09-24 06:58:00,45.9,41.6,30.07,West,280,0.0,0.0,85,0.00,FEW,,0.00,WeatherDisplay:10.37,2013-09-24 10:58:00,
2013-09-24 07:03:00,45.9,41.6,30.07,West,280,0.0,0.0,85,0.00,BKN,,0.00,WeatherDisplay:10.37,2013-09-24 11:03:00,
2013-09-24 07:08:00,46.0,41.8,30.07,West,280,0.0,0.0,85,0.00,BKN,,0.00,WeatherDisplay:10.37,2013-09-24 11:08:00,
2013-09-24 07:13:00,46.0,41.8,30.07,West,280,0.0,0.0,85,0.00,BKN,,0.00,WeatherDisplay:10.37,2013-09-24 11:13:00,
2013-09-24 07:18:00,46.2,42.0,30.07,West,280,0.0,0.0,85,0.00,BKN,,0.00,WeatherDisplay:10.37,2013-09-24 11:18:00,
2013-09-24 07:23:00,46.2,42.0,30.07,West,280,0.0,0.0,85,0.00,BKN,,0.00,WeatherDisplay:10.37,2013-09-24 11:23:00,
2013-09-24 07:28:00,46.4,42.1,30.07,West,280,0.0,0.0,85,0.00,BKN,,0.00,WeatherDisplay:10.37,2013-09-24 11:28:00,
2013-09-24 07:33:00,46.4,42.1,30.07,West,280,0.0,0.0,85,0.00,BKN,,0.00,WeatherDisplay:10.37,2013-09-24 11:33:00,
2013-09-24 07:38:00,46.6,42.3,30.07,West,280,0.0,0.0,85,0.00,BKN,,0.00,WeatherDisplay:10.37,2013-09-24 11:38:00,
2013-09-24 07:43:00,46.6,42.3,30.07,West,280,0.0,0.0,85,0.00,BKN,,0.00,WeatherDisplay:10.37,2013-09-24 11:43:00,
2013-09-24 07:48:00,46.8,42.5,30.07,West,280,0.0,0.0,85,0.00,BKN,,0.00,WeatherDisplay:10.37,2013-09-24 11:48:00,
2013-09-24 07:53:00,46.9,42.7,30.07,West,280,0.0,0.0,85,0.00,BKN,,0.00,WeatherDisplay:10.37,2013-09-24 11:53:00,
2013-09-24 07:58:00,47.1,42.8,30.07,West,280,0.0,0.0,85,0.00,BKN,,0.00,WeatherDisplay:10.37,2013-09-24 11:58:00,
2013-09-24 08:03:00,47.3,41.1,30.07,West,280,0.0,0.0,79,0.00,SCT,,0.00,WeatherDisplay:10.37,2013-09-24 12:03:00,
2013-09-24 08:08:00,47.3,41.1,30.07,West,280,0.0,0.0,79,0.00,SCT,,0.00,WeatherDisplay:10.37,2013-09-24 12:08:00,
2013-09-24 08:13:00,47.7,41.5,30.07,West,280,0.0,0.0,79,0.00,SCT,,0.00,WeatherDisplay:10.37,2013-09-24 12:13:00,
2013-09-24 08:18:00,47.8,41.6,30.07,West,280,0.0,0.0,79,0.00,SCT,,0.00,WeatherDisplay:10.37,2013-09-24 12:18:00,
2013-09-24 08:23:00,48.0,41.8,30.07,West,280,0.0,0.0,79,0.00,SCT,,0.00,WeatherDisplay:10.37,2013-09-24 12:23:00,
2013-09-24 08:28:00,48.2,42.0,30.07,West,280,0.0,0.0,79,0.00,SCT,,0.00,WeatherDisplay:10.37,2013-09-24 12:28:00,
2013-09-24 08:33:00,48.6,42.3,30.07,West,280,0.0,0.0,79,0.00,SCT,,0.00,WeatherDisplay:10.37,2013-09-24 12:33:00,
2013-09-24 08:38:00,48.7,42.5,30.07,West,280,0.0,0.0,79,0.00,SCT,,0.00,WeatherDisplay:10.37,2013-09-24 12:38:00,
2013-09-24 08:43:00,49.1,42.9,30.07,West,280,0.0,0.0,79,0.00,SCT,,0.00,WeatherDisplay:10.37,2013-09-24 12:43:00,
2013-09-24 08:48:00,49.6,43.4,30.07,West,280,0.0,0.0,79,0.00,SCT,,0.00,WeatherDisplay:10.37,2013-09-24 12:48:00,
2013-09-24 08:53:00,50.0,43.7,30.07,West,280,0.0,0.0,79,0.00,SCT,,0.00,WeatherDisplay:10.37,2013-09-24 12:53:00,
2013-09-24 08:58:00,50.2,43.9,30.04,West,280,0.0,0.0,79,0.00,SCT,,0.00,WeatherDisplay:10.37,2013-09-24 12:58:00,
2013-09-24 09:03:00,50.4,42.0,30.04,WNW,300,5.8,5.8,73,0.00,SCT,,0.00,WeatherDisplay:10.37,2013-09-24 13:03:00,
2013-09-24 09:08:00,50.9,42.6,30.04,WNW,300,5.8,5.8,73,0.00,SCT,,0.00,WeatherDisplay:10.37,2013-09-24 13:08:00,
2013-09-24 09:13:00,51.3,42.9,30.04,WNW,300,5.8,5.8,73,0.00,SCT,,0.00,WeatherDisplay:10.37,2013-09-24 13:13:00,
2013-09-24 09:18:00,51.6,43.2,30.04,WNW,300,5.8,5.8,73,0.00,SCT,,0.00,WeatherDisplay:10.37,2013-09-24 13:18:00,
2013-09-24 09:23:00,52.0,43.6,30.04,WNW,300,5.8,5.8,73,0.00,SCT,,0.00,WeatherDisplay:10.37,2013-09-24 13:23:00,
2013-09-24 09:28:00,52.3,43.9,30.04,WNW,300,5.8,5.8,73,0.00,SCT,,0.00,WeatherDisplay:10.37,2013-09-24 13:28:00,
2013-09-24 09:33:00,52.5,44.1,30.04,WNW,300,5.8,5.8,73,0.00,SCT,,0.00,WeatherDisplay:10.37,2013-09-24 13:33:00,
2013-09-24 09:38:00,52.9,44.5,30.04,WNW,300,5.8,5.8,73,0.00,SCT,,0.00,WeatherDisplay:10.37,2013-09-24 13:38:00,
2013-09-24 09:43:00,53.2,44.8,30.04,WNW,300,5.8,5.8,73,0.00,SCT,,0.00,WeatherDisplay:10.37,2013-09-24 13:43:00,
2013-09-24 09:48:00,53.4,45.0,30.04,WNW,300,5.8,5.8,73,0.00,SCT,,0.00,WeatherDisplay:10.37,2013-09-24 13:48:00,
2013-09-24 09:53:00,54.0,45.5,30.04,WNW,300,5.8,5.8,73,0.00,SCT,,0.00,WeatherDisplay:10.37,2013-09-24 13:53:00,
2013-09-24 09:58:00,54.3,45.8,30.04,WNW,300,5.8,5.8,73,0.00,SCT,,0.00,WeatherDisplay:10.37,2013-09-24 13:58:00,
2013-09-24 10:03:00,54.7,42.3,30.04,NNW,330,9.2,18.4,63,0.00,FEW,,0.00,WeatherDisplay:10.37,2013-09-24 14:03:00,
2013-09-24 10:08:00,54.9,42.5,30.04,NNW,330,9.2,18.4,63,0.00,FEW,,0.00,WeatherDisplay:10.37,2013-09-24 14:08:00,
2013-09-24 10:13:00,55.0,42.7,30.04,NNW,330,9.2,18.4,63,0.00,FEW,,0.00,WeatherDisplay:10.37,2013-09-24 14:13:00,
2013-09-24 10:18:00,55.4,43.0,30.04,NNW,330,9.2,18.4,63,0.00,FEW,,0.00,WeatherDisplay:10.37,2013-09-24 14:18:00,
2013-09-24 10:23:00,55.8,43.3,30.04,NNW,330,9.2,18.4,63,0.00,FEW,,0.00,WeatherDisplay:10.37,2013-09-24 14:23:00,
2013-09-24 10:28:00,56.1,43.7,30.04,NNW,330,9.2,18.4,63,0.00,FEW,,0.00,WeatherDisplay:10.37,2013-09-24 14:28:00,
2013-09-24 10:33:00,55.9,43.5,30.04,NNW,330,9.2,18.4,63,0.00,FEW,,0.00,WeatherDisplay:10.37,2013-09-24 14:33:00,
2013-09-24 10:38:00,56.1,43.7,30.04,NNW,330,9.2,18.4,63,0.00,FEW,,0.00,WeatherDisplay:10.37,2013-09-24 14:38:00,
2013-09-24 10:43:00,56.1,43.7,30.04,NNW,330,9.2,18.4,63,0.00,FEW,,0.00,WeatherDisplay:10.37,2013-09-24 14:43:00,
2013-09-24 10:48:00,56.1,43.7,30.01,NNW,330,9.2,18.4,63,0.00,FEW,,0.00,WeatherDisplay:10.37,2013-09-24 14:48:00,
2013-09-24 10:53:00,55.9,43.5,30.01,NNW,330,9.2,18.4,63,0.00,FEW,,0.00,WeatherDisplay:10.37,2013-09-24 14:53:00,
2013-09-24 10:58:00,56.1,43.7,30.01,NNW,330,9.2,18.4,63,0.00,FEW,,0.00,WeatherDisplay:10.37,2013-09-24 14:58:00,
2013-09-24 11:03:00,56.1,40.6,30.01,NW,310,12.7,12.7,56,0.00,FEW,,0.00,WeatherDisplay:10.37,2013-09-24 15:03:00,
2013-09-24 11:08:00,56.3,40.8,30.01,NW,310,12.7,12.7,56,0.00,FEW,,0.00,WeatherDisplay:10.37,2013-09-24 15:08:00,
2013-09-24 11:13:00,56.5,41.0,30.01,NW,310,12.7,12.7,56,0.00,FEW,,0.00,WeatherDisplay:10.37,2013-09-24 15:13:00,
2013-09-24 11:18:00,56.5,41.0,30.01,NW,310,12.7,12.7,56,0.00,FEW,,0.00,WeatherDisplay:10.37,2013-09-24 15:18:00,
2013-09-24 11:23:00,56.7,41.1,30.01,NW,310,12.7,12.7,56,0.00,FEW,,0.00,WeatherDisplay:10.37,2013-09-24 15:23:00,
2013-09-24 11:28:00,56.8,41.3,30.01,NW,310,12.7,12.7,56,0.00,FEW,,0.00,WeatherDisplay:10.37,2013-09-24 15:28:00,
2013-09-24 11:33:00,56.8,41.3,30.01,NW,310,12.7,12.7,56,0.00,FEW,,0.00,WeatherDisplay:10.37,2013-09-24 15:33:00,
2013-09-24 11:38:00,57.0,41.5,30.01,NW,310,12.7,12.7,56,0.00,FEW,,0.00,WeatherDisplay:10.37,2013-09-24 15:38:00,
2013-09-24 11:43:00,57.2,41.6,30.01,NW,310,12.7,12.7,56,0.00,FEW,,0.00,WeatherDisplay:10.37,2013-09-24 15:43:00,
2013-09-24 11:48:00,57.2,41.6,30.01,NW,310,12.7,12.7,56,0.00,FEW,,0.00,WeatherDisplay:10.37,2013-09-24 15:48:00,
2013-09-24 11:53:00,57.2,41.6,30.01,NW,310,12.7,12.7,56,0.00,FEW,,0.00,WeatherDisplay:10.37,2013-09-24 15:53:00,
2013-09-24 11:58:00,57.2,41.6,29.98,NW,310,12.7,12.7,56,0.00,FEW,,0.00,WeatherDisplay:10.37,2013-09-24 15:58:00,
2013-09-24 12:03:00,57.6,40.1,29.98,NNW,340,11.5,11.5,52,0.00,FEW,,0.00,WeatherDisplay:10.37,2013-09-24 16:03:00,
2013-09-24 12:08:00,57.6,40.1,29.98,NNW,340,11.5,11.5,52,0.00,FEW,,0.00,WeatherDisplay:10.37,2013-09-24 16:08:00,
2013-09-24 12:13:00,57.7,40.2,30.01,NNW,340,11.5,11.5,52,0.00,FEW,,0.00,WeatherDisplay:10.37,2013-09-24 16:13:00,
2013-09-24 12:18:00,57.9,40.4,30.01,NNW,340,11.5,11.5,52,0.00,FEW,,0.00,WeatherDisplay:10.37,2013-09-24 16:18:00,
2013-09-24 12:24:00,58.1,40.6,30.01,NNW,340,11.5,11.5,52,0.00,FEW,,0.00,WeatherDisplay:10.37,2013-09-24 16:24:00,
2013-09-24 12:29:00,58.1,40.6,30.01,NNW,340,11.5,11.5,52,0.00,FEW,,0.00,WeatherDisplay:10.37,2013-09-24 16:29:00,
2013-09-24 12:34:00,58.3,40.7,30.01,NNW,340,11.5,11.5,52,0.00,FEW,,0.00,WeatherDisplay:10.37,2013-09-24 16:34:00,
2013-09-24 12:39:00,58.5,40.9,30.01,NNW,340,11.5,11.5,52,0.00,FEW,,0.00,WeatherDisplay:10.37,2013-09-24 16:39:00,
2013-09-24 12:44:00,58.8,41.2,30.01,NNW,340,11.5,11.5,52,0.00,FEW,,0.00,WeatherDisplay:10.37,2013-09-24 16:44:00,
2013-09-24 12:49:00,58.8,41.2,30.01,NNW,340,11.5,11.5,52,0.00,FEW,,0.00,WeatherDisplay:10.37,2013-09-24 16:49:00,
2013-09-24 12:54:00,59.2,41.6,30.01,NNW,340,11.5,11.5,52,0.00,FEW,,0.00,WeatherDisplay:10.37,2013-09-24 16:54:00,
2013-09-24 12:59:00,59.4,41.7,29.98,NNW,340,11.5,11.5,52,0.00,FEW,,0.00,WeatherDisplay:10.37,2013-09-24 16:59:00,
2013-09-24 13:04:00,59.4,39.1,29.98,WNW,300,6.9,18.4,47,0.00,CLR,,0.00,WeatherDisplay:10.37,2013-09-24 17:04:00,
2013-09-24 13:09:00,59.7,39.4,29.98,WNW,300,6.9,18.4,47,0.00,CLR,,0.00,WeatherDisplay:10.37,2013-09-24 17:09:00,
2013-09-24 13:14:00,59.7,39.4,29.98,WNW,300,6.9,18.4,47,0.00,CLR,,0.00,WeatherDisplay:10.37,2013-09-24 17:14:00,
2013-09-24 13:19:00,59.9,39.6,29.98,WNW,300,6.9,18.4,47,0.00,CLR,,0.00,WeatherDisplay:10.37,2013-09-24 17:19:00,
2013-09-24 13:24:00,60.1,39.8,29.98,WNW,300,6.9,18.4,47,0.00,CLR,,0.00,WeatherDisplay:10.37,2013-09-24 17:24:00,
2013-09-24 13:29:00,60.3,39.9,29.98,WNW,300,6.9,18.4,47,0.00,CLR,,0.00,WeatherDisplay:10.37,2013-09-24 17:29:00,
2013-09-24 13:34:00,60.3,39.9,29.98,WNW,300,6.9,18.4,47,0.00,CLR,,0.00,WeatherDisplay:10.37,2013-09-24 17:34:00,
2013-09-24 13:39:00,60.4,40.1,29.98,WNW,300,6.9,18.4,47,0.00,CLR,,0.00,WeatherDisplay:10.37,2013-09-24 17:39:00,
2013-09-24 13:44:00,60.6,40.3,29.95,WNW,300,6.9,18.4,47,0.00,CLR,,0.00,WeatherDisplay:10.37,2013-09-24 17:44:00,
2013-09-24 13:49:00,60.6,40.3,29.95,WNW,300,6.9,18.4,47,0.00,CLR,,0.00,WeatherDisplay:10.37,2013-09-24 17:49:00,
2013-09-24 13:54:00,61.0,40.6,29.95,WNW,300,6.9,18.4,47,0.00,CLR,,0.00,WeatherDisplay:10.37,2013-09-24 17:54:00,
2013-09-24 13:59:00,61.0,40.6,29.95,WNW,300,6.9,18.4,47,0.00,CLR,,0.00,WeatherDisplay:10.37,2013-09-24 17:59:00,
2013-09-24 14:04:00,61.2,39.1,29.95,WNW,300,6.9,6.9,44,0.00,CLR,,0.00,WeatherDisplay:10.37,2013-09-24 18:04:00,
2013-09-24 14:09:00,61.3,39.2,29.95,WNW,300,6.9,6.9,44,0.00,CLR,,0.00,WeatherDisplay:10.37,2013-09-24 18:09:00,
2013-09-24 14:14:00,61.3,39.2,29.95,WNW,300,6.9,6.9,44,0.00,CLR,,0.00,WeatherDisplay:10.37,2013-09-24 18:14:00,
2013-09-24 14:19:00,61.5,39.4,29.95,WNW,300,6.9,6.9,44,0.00,CLR,,0.00,WeatherDisplay:10.37,2013-09-24 18:19:00,
2013-09-24 14:24:00,61.7,39.6,29.95,WNW,300,6.9,6.9,44,0.00,CLR,,0.00,WeatherDisplay:10.37,2013-09-24 18:24:00,
2013-09-24 14:29:00,62.1,39.9,29.95,WNW,300,6.9,6.9,44,0.00,CLR,,0.00,WeatherDisplay:10.37,2013-09-24 18:29:00,
2013-09-24 14:34:00,62.1,39.9,29.95,WNW,300,6.9,6.9,44,0.00,CLR,,0.00,WeatherDisplay:10.37,2013-09-24 18:34:00,
2013-09-24 14:39:00,62.2,40.0,29.95,WNW,300,6.9,6.9,44,0.00,CLR,,0.00,WeatherDisplay:10.37,2013-09-24 18:39:00,
2013-09-24 14:44:00,62.2,40.0,29.95,WNW,300,6.9,6.9,44,0.00,CLR,,0.00,WeatherDisplay:10.37,2013-09-24 18:44:00,
2013-09-24 14:49:00,62.6,40.4,29.95,WNW,300,6.9,6.9,44,0.00,CLR,,0.00,WeatherDisplay:10.37,2013-09-24 18:49:00,
2013-09-24 14:54:00,62.6,40.4,29.95,WNW,300,6.9,6.9,44,0.00,CLR,,0.00,WeatherDisplay:10.37,2013-09-24 18:54:00,
2013-09-24 14:59:00,62.8,40.5,29.92,WNW,300,6.9,6.9,44,0.00,CLR,,0.00,WeatherDisplay:10.37,2013-09-24 18:59:00,
2013-09-24 15:04:00,63.0,40.1,29.92,WNW,300,4.6,4.6,43,0.00,FEW,,0.00,WeatherDisplay:10.37,2013-09-24 19:04:00,
2013-09-24 15:09:00,63.0,40.1,29.92,WNW,300,4.6,4.6,43,0.00,FEW,,0.00,WeatherDisplay:10.37,2013-09-24 19:09:00,
2013-09-24 15:14:00,63.1,40.3,29.92,WNW,300,4.6,4.6,43,0.00,FEW,,0.00,WeatherDisplay:10.37,2013-09-24 19:14:00,
2013-09-24 15:19:00,63.1,40.3,29.92,WNW,300,4.6,4.6,43,0.00,FEW,,0.00,WeatherDisplay:10.37,2013-09-24 19:19:00,
2013-09-24 15:24:00,63.3,40.4,29.92,WNW,300,4.6,4.6,43,0.00,FEW,,0.00,WeatherDisplay:10.37,2013-09-24 19:24:00,
2013-09-24 15:29:00,63.3,40.4,29.92,WNW,300,4.6,4.6,43,0.00,FEW,,0.00,WeatherDisplay:10.37,2013-09-24 19:29:00,
2013-09-24 15:34:00,63.3,40.4,29.92,WNW,300,4.6,4.6,43,0.00,FEW,,0.00,WeatherDisplay:10.37,2013-09-24 19:34:00,
2013-09-24 15:39:00,63.3,40.4,29.92,WNW,300,4.6,4.6,43,0.00,FEW,,0.00,WeatherDisplay:10.37,2013-09-24 19:39:00,
2013-09-24 15:44:00,63.1,40.3,29.92,WNW,300,4.6,4.6,43,0.00,FEW,,0.00,WeatherDisplay:10.37,2013-09-24 19:44:00,
2013-09-24 15:49:00,63.3,40.4,29.92,WNW,300,4.6,4.6,43,0.00,FEW,,0.00,WeatherDisplay:10.37,2013-09-24 19:49:00,
2013-09-24 15:54:00,63.3,40.4,29.92,WNW,300,4.6,4.6,43,0.00,FEW,,0.00,WeatherDisplay:10.37,2013-09-24 19:54:00,
2013-09-24 15:59:00,63.3,40.4,29.92,WNW,300,4.6,4.6,43,0.00,FEW,,0.00,WeatherDisplay:10.37,2013-09-24 19:59:00,
2013-09-24 16:04:00,63.3,38.6,29.92,West,280,11.5,11.5,40,0.00,FEW,,0.00,WeatherDisplay:10.37,2013-09-24 20:04:00,
2013-09-24 16:09:00,63.3,38.6,29.92,West,280,11.5,11.5,40,0.00,FEW,,0.00,WeatherDisplay:10.37,2013-09-24 20:09:00,
2013-09-24 16:14:00,63.5,38.7,29.92,West,280,11.5,11.5,40,0.00,FEW,,0.00,WeatherDisplay:10.37,2013-09-24 20:14:00,
2013-09-24 16:19:00,63.3,38.6,29.92,West,280,11.5,11.5,40,0.00,FEW,,0.00,WeatherDisplay:10.37,2013-09-24 20:19:00,
2013-09-24 16:24:00,63.3,38.6,29.92,West,280,11.5,11.5,40,0.00,FEW,,0.00,WeatherDisplay:10.37,2013-09-24 20:24:00,
2013-09-24 16:29:00,63.3,38.6,29.92,West,280,11.5,11.5,40,0.00,FEW,,0.00,WeatherDisplay:10.37,2013-09-24 20:29:00,
2013-09-24 16:34:00,63.3,38.6,29.92,West,280,11.5,11.5,40,0.00,FEW,,0.00,WeatherDisplay:10.37,2013-09-24 20:34:00,
2013-09-24 16:39:00,63.3,38.6,29.92,West,280,11.5,11.5,40,0.00,FEW,,0.00,WeatherDisplay:10.37,2013-09-24 20:39:00,
2013-09-24 16:44:00,63.3,38.6,29.92,West,280,11.5,11.5,40,0.00,FEW,,0.00,WeatherDisplay:10.37,2013-09-24 20:44:00,
2013-09-24 16:49:00,63.3,38.6,29.92,West,280,11.5,11.5,40,0.00,FEW,,0.00,WeatherDisplay:10.37,2013-09-24 20:49:00,
2013-09-24 16:54:00,63.1,38.4,29.92,West,280,11.5,11.5,40,0.00,FEW,,0.00,WeatherDisplay:10.37,2013-09-24 20:54:00,
2013-09-24 16:59:00,63.1,38.4,29.92,West,280,11.5,11.5,40,0.00,FEW,,0.00,WeatherDisplay:10.37,2013-09-24 20:59:00,
2013-09-24 17:04:00,63.1,38.4,29.92,West,280,10.4,10.4,40,0.00,FEW,,0.00,WeatherDisplay:10.37,2013-09-24 21:04:00,
2013-09-24 17:09:00,63.1,38.4,29.92,West,280,10.4,10.4,40,0.00,FEW,,0.00,WeatherDisplay:10.37,2013-09-24 21:09:00,
2013-09-24 17:14:00,63.1,38.4,29.89,West,280,10.4,10.4,40,0.00,FEW,,0.00,WeatherDisplay:10.37,2013-09-24 21:14:00,
2013-09-24 17:19:00,63.0,38.2,29.89,West,280,10.4,10.4,40,0.00,FEW,,0.00,WeatherDisplay:10.37,2013-09-24 21:19:00,
2013-09-24 17:24:00,63.0,38.2,29.89,West,280,10.4,10.4,40,0.00,FEW,,0.00,WeatherDisplay:10.37,2013-09-24 21:24:00,
2013-09-24 17:29:00,63.0,38.2,29.89,West,280,10.4,10.4,40,0.00,FEW,,0.00,WeatherDisplay:10.37,2013-09-24 21:29:00,
2013-09-24 17:34:00,62.8,38.1,29.89,West,280,10.4,10.4,40,0.00,FEW,,0.00,WeatherDisplay:10.37,2013-09-24 21:34:00,
2013-09-24 17:39:00,62.8,38.1,29.89,West,280,10.4,10.4,40,0.00,FEW,,0.00,WeatherDisplay:10.37,2013-09-24 21:39:00,
2013-09-24 17:44:00,62.6,37.9,29.89,West,280,10.4,10.4,40,0.00,FEW,,0.00,WeatherDisplay:10.37,2013-09-24 21:44:00,
2013-09-24 17:49:00,62.6,37.9,29.89,West,280,10.4,10.4,40,0.00,FEW,,0.00,WeatherDisplay:10.37,2013-09-24 21:49:00,
2013-09-24 17:54:00,62.4,37.8,29.89,West,280,10.4,10.4,40,0.00,FEW,,0.00,WeatherDisplay:10.37,2013-09-24 21:54:00,
2013-09-24 17:59:00,62.2,37.6,29.89,West,280,10.4,10.4,40,0.00,FEW,,0.00,WeatherDisplay:10.37,2013-09-24 21:59:00,
2013-09-24 18:04:00,62.1,39.9,29.89,WNW,290,11.5,11.5,44,0.00,FEW,,0.00,WeatherDisplay:10.37,2013-09-24 22:04:00,
2013-09-24 18:09:00,61.9,39.7,29.89,WNW,290,11.5,11.5,44,0.00,FEW,,0.00,WeatherDisplay:10.37,2013-09-24 22:09:00,
2013-09-24 18:14:00,61.9,39.7,29.89,WNW,290,11.5,11.5,44,0.00,FEW,,0.00,WeatherDisplay:10.37,2013-09-24 22:14:00,
2013-09-24 18:19:00,61.7,39.6,29.89,WNW,290,11.5,11.5,44,0.00,FEW,,0.00,WeatherDisplay:10.37,2013-09-24 22:19:00,
2013-09-24 18:24:00,61.5,39.4,29.89,WNW,290,11.5,11.5,44,0.00,FEW,,0.00,WeatherDisplay:10.37,2013-09-24 22:24:00,
2013-09-24 18:29:00,61.3,39.2,29.89,WNW,290,11.5,11.5,44,0.00,FEW,,0.00,WeatherDisplay:10.37,2013-09-24 22:29:00,
2013-09-24 18:34:00,61.2,39.1,29.89,WNW,290,11.5,11.5,44,0.00,FEW,,0.00,WeatherDisplay:10.37,2013-09-24 22:34:00,
2013-09-24 18:39:00,61.2,39.1,29.89,WNW,290,11.5,11.5,44,0.00,FEW,,0.00,WeatherDisplay:10.37,2013-09-24 22:39:00,
2013-09-24 18:44:00,61.0,38.9,29.89,WNW,290,11.5,11.5,44,0.00,FEW,,0.00,WeatherDisplay:10.37,2013-09-24 22:44:00,
2013-09-24 18:49:00,60.8,38.7,29.89,WNW,290,11.5,11.5,44,0.00,FEW,,0.00,WeatherDisplay:10.37,2013-09-24 22:49:00,
2013-09-24 18:54:00,60.6,38.6,29.89,WNW,290,11.5,11.5,44,0.00,FEW,,0.00,WeatherDisplay:10.37,2013-09-24 22:54:00,
2013-09-24 18:59:00,60.4,38.4,29.92,WNW,290,11.5,11.5,44,0.00,FEW,,0.00,WeatherDisplay:10.37,2013-09-24 22:59:00,
2013-09-24 19:04:00,60.4,44.2,29.92,WNW,290,12.7,12.7,55,0.00,FEW,,0.00,WeatherDisplay:10.37,2013-09-24 23:04:00,
2013-09-24 19:09:00,60.3,44.0,29.92,WNW,290,12.7,12.7,55,0.00,FEW,,0.00,WeatherDisplay:10.37,2013-09-24 23:09:00,
2013-09-24 19:14:00,60.1,43.9,29.92,WNW,290,12.7,12.7,55,0.00,FEW,,0.00,WeatherDisplay:10.37,2013-09-24 23:14:00,
2013-09-24 19:19:00,59.9,43.7,29.92,WNW,290,12.7,12.7,55,0.00,FEW,,0.00,WeatherDisplay:10.37,2013-09-24 23:19:00,
2013-09-24 19:24:00,59.7,43.5,29.92,WNW,290,12.7,12.7,55,0.00,FEW,,0.00,WeatherDisplay:10.37,2013-09-24 23:24:00,
2013-09-24 19:29:00,59.5,43.3,29.92,WNW,290,12.7,12.7,55,0.00,FEW,,0.00,WeatherDisplay:10.37,2013-09-24 23:29:00,
2013-09-24 19:34:00,59.5,43.3,29.92,WNW,290,12.7,12.7,55,0.00,FEW,,0.00,WeatherDisplay:10.37,2013-09-24 23:34:00,
2013-09-24 19:39:00,59.4,43.2,29.92,WNW,290,12.7,12.7,55,0.00,FEW,,0.00,WeatherDisplay:10.37,2013-09-24 23:39:00,
2013-09-24 19:44:00,59.2,43.0,29.95,WNW,290,12.7,12.7,55,0.00,FEW,,0.00,WeatherDisplay:10.37,2013-09-24 23:44:00,
2013-09-24 19:49:00,59.2,43.0,29.95,WNW,290,12.7,12.7,55,0.00,FEW,,0.00,WeatherDisplay:10.37,2013-09-24 23:49:00,
2013-09-24 19:54:00,59.0,42.8,29.95,WNW,290,12.7,12.7,55,0.00,FEW,,0.00,WeatherDisplay:10.37,2013-09-24 23:54:00,
2013-09-24 19:59:00,59.0,42.8,29.95,WNW,290,12.7,12.7,55,0.00,FEW,,0.00,WeatherDisplay:10.37,2013-09-24 23:59:00,
2013-09-24 20:04:00,59.0,42.8,29.95,WNW,290,12.7,12.7,55,0.00,FEW,,0.00,WeatherDisplay:10.37,2013-09-25 00:04:00,
2013-09-24 20:09:00,58.8,42.7,29.95,WNW,290,12.7,12.7,55,0.00,FEW,,0.00,WeatherDisplay:10.37,2013-09-25 00:09:00,
2013-09-24 20:14:00,58.8,42.7,29.95,WNW,290,12.7,12.7,55,0.00,FEW,,0.00,WeatherDisplay:10.37,2013-09-25 00:14:00,
2013-09-24 20:19:00,58.6,44.3,29.95,WNW,300,10.4,10.4,59,0.00,FEW,,0.00,WeatherDisplay:10.37,2013-09-25 00:19:00,
2013-09-24 20:24:00,58.6,44.3,29.95,WNW,300,10.4,10.4,59,0.00,FEW,,0.00,WeatherDisplay:10.37,2013-09-25 00:24:00,
2013-09-24 20:29:00,58.6,44.3,29.95,WNW,300,10.4,10.4,59,0.00,FEW,,0.00,WeatherDisplay:10.37,2013-09-25 00:29:00,
2013-09-24 20:34:00,58.5,44.2,29.95,WNW,300,10.4,10.4,59,0.00,FEW,,0.00,WeatherDisplay:10.37,2013-09-25 00:34:00,
2013-09-24 20:39:00,58.5,44.2,29.95,WNW,300,10.4,10.4,59,0.00,FEW,,0.00,WeatherDisplay:10.37,2013-09-25 00:39:00,
2013-09-24 20:44:00,58.3,44.0,29.95,WNW,300,10.4,10.4,59,0.00,FEW,,0.00,WeatherDisplay:10.37,2013-09-25 00:44:00,
2013-09-24 20:49:00,58.1,43.8,29.95,WNW,300,10.4,10.4,59,0.00,FEW,,0.00,WeatherDisplay:10.37,2013-09-25 00:49:00,
2013-09-24 20:54:00,58.1,43.8,29.95,WNW,300,10.4,10.4,59,0.00,FEW,,0.00,WeatherDisplay:10.37,2013-09-25 00:54:00,
2013-09-24 20:59:00,58.1,43.8,29.95,WNW,300,10.4,10.4,59,0.00,FEW,,0.00,WeatherDisplay:10.37,2013-09-25 00:59:00,
2013-09-24 21:04:00,57.9,44.5,29.95,NW,310,11.5,11.5,61,0.00,CLR,,0.00,WeatherDisplay:10.37,2013-09-25 01:04:00,
2013-09-24 21:09:00,57.7,44.4,29.95,NW,310,11.5,11.5,61,0.00,CLR,,0.00,WeatherDisplay:10.37,2013-09-25 01:09:00,
2013-09-24 21:14:00,57.6,44.2,29.98,NW,310,11.5,11.5,61,0.00,CLR,,0.00,WeatherDisplay:10.37,2013-09-25 01:14:00,
2013-09-24 21:19:00,57.6,44.2,29.98,NW,310,11.5,11.5,61,0.00,CLR,,0.00,WeatherDisplay:10.37,2013-09-25 01:19:00,
2013-09-24 21:24:00,57.6,44.2,29.98,NW,310,11.5,11.5,61,0.00,CLR,,0.00,WeatherDisplay:10.37,2013-09-25 01:24:00,
2013-09-24 21:29:00,57.4,44.0,29.98,NW,310,11.5,11.5,61,0.00,CLR,,0.00,WeatherDisplay:10.37,2013-09-25 01:29:00,
2013-09-24 21:34:00,57.2,43.9,29.98,NW,310,11.5,11.5,61,0.00,CLR,,0.00,WeatherDisplay:10.37,2013-09-25 01:34:00,
2013-09-24 21:39:00,57.0,43.7,29.98,NW,310,11.5,11.5,61,0.00,CLR,,0.00,WeatherDisplay:10.37,2013-09-25 01:39:00,
2013-09-24 21:44:00,57.0,43.7,29.98,NW,310,11.5,11.5,61,0.00,CLR,,0.00,WeatherDisplay:10.37,2013-09-25 01:44:00,
2013-09-24 21:49:00,56.8,43.5,29.98,NW,310,11.5,11.5,61,0.00,CLR,,0.00,WeatherDisplay:10.37,2013-09-25 01:49:00,
2013-09-24 21:54:00,56.7,43.4,29.98,NW,310,11.5,11.5,61,0.00,CLR,,0.00,WeatherDisplay:10.37,2013-09-25 01:54:00,
2013-09-24 21:59:00,56.7,43.4,29.98,NW,310,11.5,11.5,61,0.00,CLR,,0.00,WeatherDisplay:10.37,2013-09-25 01:59:00,
2013-09-24 22:04:00,56.5,46.4,29.98,NW,310,6.9,6.9,69,0.00,CLR,,0.00,WeatherDisplay:10.37,2013-09-25 02:04:00,
2013-09-24 22:09:00,56.5,46.4,29.98,NW,310,6.9,6.9,69,0.00,CLR,,0.00,WeatherDisplay:10.37,2013-09-25 02:09:00,
2013-09-24 22:15:00,56.3,46.3,29.98,NW,310,6.9,6.9,69,0.00,CLR,,0.00,WeatherDisplay:10.37,2013-09-25 02:15:00,
2013-09-24 22:20:00,56.3,46.3,29.98,NW,310,6.9,6.9,69,0.00,CLR,,0.00,WeatherDisplay:10.37,2013-09-25 02:20:00,
2013-09-24 22:25:00,56.1,46.1,29.98,NW,310,6.9,6.9,69,0.00,CLR,,0.00,WeatherDisplay:10.37,2013-09-25 02:25:00,
2013-09-24 22:30:00,55.9,45.9,29.98,NW,310,6.9,6.9,69,0.00,CLR,,0.00,WeatherDisplay:10.37,2013-09-25 02:30:00,
2013-09-24 22:35:00,55.9,45.9,29.98,NW,310,6.9,6.9,69,0.00,CLR,,0.00,WeatherDisplay:10.37,2013-09-25 02:35:00,
2013-09-24 22:40:00,55.8,45.7,29.98,NW,310,6.9,6.9,69,0.00,CLR,,0.00,WeatherDisplay:10.37,2013-09-25 02:40:00,
2013-09-24 22:45:00,55.4,45.4,29.98,NW,310,6.9,6.9,69,0.00,CLR,,0.00,WeatherDisplay:10.37,2013-09-25 02:45:00,
2013-09-24 22:50:00,55.2,45.2,29.98,NW,310,6.9,6.9,69,0.00,CLR,,0.00,WeatherDisplay:10.37,2013-09-25 02:50:00,
2013-09-24 22:55:00,54.9,44.9,29.98,NW,310,6.9,6.9,69,0.00,CLR,,0.00,WeatherDisplay:10.37,2013-09-25 02:55:00,
2013-09-24 23:00:00,54.9,44.9,29.98,NW,310,6.9,6.9,69,0.00,CLR,,0.00,WeatherDisplay:10.37,2013-09-25 03:00:00,
2013-09-24 23:05:00,54.7,46.2,29.98,NW,310,0.0,0.0,73,0.00,CLR,,0.00,WeatherDisplay:10.37,2013-09-25 03:05:00,
2013-09-24 23:10:00,54.7,46.2,29.98,NW,310,0.0,0.0,73,0.00,CLR,,0.00,WeatherDisplay:10.37,2013-09-25 03:10:00,
2013-09-24 23:15:00,54.7,46.2,29.98,NW,310,0.0,0.0,73,0.00,CLR,,0.00,WeatherDisplay:10.37,2013-09-25 03:15:00,
2013-09-24 23:20:00,54.5,46.0,29.98,NW,310,0.0,0.0,73,0.00,CLR,,0.00,WeatherDisplay:10.37,2013-09-25 03:20:00,
2013-09-24 23:25:00,54.5,46.0,29.98,NW,310,0.0,0.0,73,0.00,CLR,,0.00,WeatherDisplay:10.37,2013-09-25 03:25:00,
2013-09-24 23:30:00,54.5,46.0,29.98,NW,310,0.0,0.0,73,0.00,CLR,,0.00,WeatherDisplay:10.37,2013-09-25 03:30:00,
2013-09-24 23:35:00,54.3,45.8,29.98,NW,310,0.0,0.0,73,0.00,CLR,,0.00,WeatherDisplay:10.37,2013-09-25 03:35:00,
2013-09-24 23:40:00,54.3,45.8,29.98,NW,310,0.0,0.0,73,0.00,CLR,,0.00,WeatherDisplay:10.37,2013-09-25 03:40:00,
2013-09-24 23:45:00,54.3,45.8,29.98,NW,310,0.0,0.0,73,0.00,CLR,,0.00,WeatherDisplay:10.37,2013-09-25 03:45:00,
2013-09-24 23:50:00,54.1,45.7,29.98,NW,310,0.0,0.0,73,0.00,CLR,,0.00,WeatherDisplay:10.37,2013-09-25 03:50:00,
2013-09-24 23:55:00,54.1,45.7,29.98,NW,310,0.0,0.0,73,0.00,CLR,,0.00,WeatherDisplay:10.37,2013-09-25 03:55:00,